Snowfall_Accumulation
0.0 0.0 0.0 0.0 0.0 0.0 0.0 0.0 0.0 0.0 0.0 0.0 0.0 0.0 0.0 0.0 0.0 0.0 0.0 0.0 0.5 0.5 0.0 0.0 0.0 0.0 0.0 0.0 0.0 0.0 0.1 0.2 1.8 0.1 0.0 0.0 0.0 0.0 0.0 0.0 0.0 0.0 0.0
0.0 0.0 0.0 0.0 0.0 0.0 0.0 0.0 0.0 0.0 0.0 0.0 0.0 0.0 0.0 0.0 0.0 0.0 0.0 0.7 0.8 0.0 0.0 0.0 0.0 0.4 0.8 0.0 0.1 0.1 0.1 0.1 0.6 0.9 0.0 0.0 0.0 0.0 0.0 0.0 0.0 0.0 0.0
0.0 0.0 0.0 0.0 0.0 0.0 0.0 0.0 0.0 0.0 0.0 0.0 0.0 0.0 0.0 0.0 0.0 0.0 0.0 0.0 0.0 0.0 0.0 0.0 0.0 0.6 0.9 0.9 0.1 0.1 0.3 0.1 0.2 0.7 0.4 0.0 0.0 0.0 0.0 0.0 0.0 0.0 0.0
0.0 0.0 0.0 0.0 0.0 0.0 0.0 0.0 0.0 0.0 0.0 0.0 0.0 0.0 0.0 0.0 0.0 0.0 0.0 0.0 0.0 0.0 0.0 0.0 0.0 0.0 0.8 0.9 0.9 1.0 1.0 1.6 1.1 0.5 0.4 0.1 0.0 0.0 0.0 0.0 0.1 0.0 0.0
0.0 0.0 0.0 0.0 0.0 0.2 0.7 0.9 0.8 0.7 0.0 0.0 0.0 0.3 0.0 0.0 0.0 0.0 0.0 1.0 0.7 0.0 0.0 0.0 0.0 0.0 nan nan 1.7 1.7 1.5 2.5 3.2 3.3 0.6 0.3 0.1 0.1 0.1 0.0 0.4 0.2 0.2
0.0 0.0 0.0 1.4 1.7 1.8 1.7 1.3 0.9 0.8 0.8 0.8 0.8 0.8 0.8 0.0 nan nan 0.1 0.9 1.1 0.0 0.1 0.0 0.0 0.0 0.0 nan nan nan nan 4.1 10.2 9.4 0.9 0.6 0.1 0.1 0.0 0.1 0.2 0.4 1.1
1.9 2.7 2.5 2.2 2.0 1.6 1.3 1.2 0.9 0.9 1.0 0.8 0.8 0.8 0.8 0.7 nan nan nan 1.1 1.1 0.1 0.0 0.0 0.0 0.0 0.0 0.0 nan nan nan nan nan 0.6 1.9 0.5 0.2 0.1 0.1 0.2 0.3 0.6 0.6
2.3 3.2 2.4 1.6 2.8 1.6 1.3 1.4 1.0 0.9 1.1 0.9 1.1 1.0 0.8 0.7 nan nan nan 1.0 0.9 0.0 0.0 0.0 0.1 0.1 0.1 0.1 0.4 2.0 1.3 1.2 0.5 0.3 0.4 0.4 0.2 0.1 0.2 0.6 1.4 2.0 1.6
1.0 1.5 1.5 2.2 3.1 1.7 3.8 1.8 1.4 2.3 1.8 2.9 2.9 4.3 3.5 3.3 nan nan 2.0 3.0 2.1 1.6 0.1 0.1 0.1 0.2 nan nan 2.2 4.1 2.6 1.4 nan nan nan nan nan nan nan 6.1 15.0 16.4 8.8
0.9 0.9 1.1 2.1 4.5 3.6 2.2 3.2 3.7 3.5 3.3 4.1 3.7 3.4 0.9 4.8 nan nan nan 7.8 7.1 4.5 2.6 0.1 0.0 0.0 nan nan 2.4 3.7 5.2 1.9 1.3 3.6 1.1 0.8 nan nan nan 0.6 5.5 16.0 8.0
1.6 1.7 2.0 2.2 4.8 3.1 3.6 3.0 4.3 4.7 2.6 4.4 4.1 3.2 3.6 2.0 2.3 nan nan 4.7 6.8 8.3 7.0 4.4 2.2 nan nan nan nan 3.4 3.7 2.7 6.1 4.6 3.4 3.2 1.7 1.2 1.8 1.4 0.8 2.8 6.1
2.4 2.6 3.3 5.2 4.9 5.0 8.6 5.5 7.3 6.4 6.2 5.5 5.7 4.6 4.1 1.8 nan nan nan nan nan 12.2 6.3 2.8 2.7 nan nan nan 2.0 nan nan 1.7 9.8 10.6 8.6 6.3 3.6 3.2 1.8 1.5 0.4 0.9 1.1
5.4 7.5 7.5 6.7 6.7 6.7 9.6 6.2 8.7 7.3 8.5 4.9 6.4 5.9 3.9 3.5 3.8 nan nan nan nan 6.5 4.9 3.0 nan nan nan nan nan nan 0.2 6.2 8.5 10.2 7.0 3.5 1.9 1.5 0.8 1.6 0.5 1.0 0.6
10.2 5.6 4.6 5.9 4.4 5.9 7.9 9.0 12.6 9.7 7.7 8.1 9.3 8.7 5.4 5.1 4.0 4.5 8.5 6.1 1.9 6.5 nan 4.8 nan 2.5 nan nan 1.9 2.5 3.9 4.1 4.5 5.9 4.5 1.9 1.9 2.4 3.1 2.5 4.3 3.9 7.3
7.3 4.2 5.8 8.1 9.0 5.6 5.2 8.3 7.1 4.6 9.8 14.9 17.7 12.2 12.3 12.3 9.6 5.4 11.3 12.8 12.4 11.2 7.8 13.4 10.1 4.8 4.0 3.5 5.0 3.7 3.6 4.0 4.5 5.1 5.3 4.8 4.3 4.1 4.0 3.2 3.9 5.7 7.4
4.2 6.1 6.0 5.9 5.2 4.6 4.8 4.7 nan nan nan nan nan 12.0 15.2 nan nan nan nan nan nan nan 18.6 21.3 9.6 7.7 5.3 5.4 6.4 5.3 4.6 3.7 3.9 4.9 5.5 5.5 5.7 5.3 5.6 5.5 5.3 6.7 7.4
7.2 4.8 6.3 5.0 5.2 5.8 6.0 7.0 8.0 5.0 nan nan nan nan nan nan nan nan nan nan nan nan 31.2 16.8 13.5 8.9 8.3 5.5 6.5 5.6 5.5 4.7 2.5 4.8 4.8 5.6 7.0 7.6 7.2 6.6 6.1 5.3 8.0
6.9 1.9 7.6 7.3 7.0 7.1 7.9 8.1 8.4 9.7 11.3 9.4 nan nan nan nan nan nan nan nan 24.2 nan 25.5 25.8 21.3 16.6 11.2 9.1 6.7 6.2 6.1 5.9 5.2 6.3 6.9 11.5 13.0 13.6 11.8 11.7 8.3 10.3 9.9
7.3 6.2 6.9 6.8 6.5 6.9 7.7 6.8 7.7 7.6 8.2 10.7 10.3 10.5 5.4 nan nan nan nan 14.8 23.9 22.7 23.3 24.4 19.3 16.0 11.7 13.1 12.3 14.6 12.4 13.2 12.6 16.8 16.8 18.8 16.7 17.0 16.2 11.2 8.3 5.0 5.6
7.8 3.2 5.9 10.2 8.5 7.7 5.7 7.3 6.7 7.1 8.0 9.8 10.3 9.0 15.9 15.0 23.1 24.3 19.8 27.4 26.1 23.6 20.8 23.3 22.4 23.3 23.6 21.7 21.6 20.2 20.0 21.0 18.9 20.5 20.5 19.6 17.7 18.5 10.8 15.5 13.0 10.0 11.7
13.6 11.6 2.4 9.9 12.6 12.7 12.7 9.8 7.7 10.7 9.6 12.1 9.3 9.1 nan 14.0 16.4 19.0 22.5 19.5 23.6 26.1 21.3 23.8 23.4 30.7 31.6 35.5 28.8 27.7 25.8 14.8 20.2 22.9 24.7 24.8 23.0 27.2 15.3 8.6 13.7 14.5 13.3
15.5 16.1 16.1 16.9 11.5 11.8 13.7 8.8 10.0 10.1 9.8 8.3 6.6 7.1 nan 8.5 11.3 12.0 13.5 19.1 25.0 24.2 27.8 33.3 32.1 35.6 31.0 28.7 25.5 23.5 19.2 24.2 27.0 25.1 19.5 21.0 24.9 20.5 19.4 11.8 12.1 9.7 13.9
12.8 11.2 12.1 11.9 11.3 5.9 12.8 15.1 12.6 11.9 10.7 12.0 10.3 10.6 12.0 16.2 13.6 13.0 21.3 23.9 17.9 15.8 18.3 19.8 18.5 18.3 16.7 20.5 17.7 17.6 19.6 23.5 25.0 33.8 21.9 23.4 22.9 26.4 22.3 18.4 15.3 16.2 14.9
11.5 11.6 11.1 15.4 13.2 10.6 12.9 14.0 11.9 5.7 12.0 13.3 23.9 17.7 9.0 12.8 20.4 13.6 14.8 18.3 14.1 27.7 18.1 19.8 15.0 14.8 17.7 29.5 38.6 37.8 41.0 43.1 41.1 37.5 33.5 22.1 22.4 18.0 18.1 20.0 14.8 12.5 10.6
14.5 12.0 12.2 11.1 18.3 13.9 12.9 16.0 10.6 15.6 19.1 13.9 17.9 12.3 12.8 11.5 13.0 20.7 18.7 14.3 16.6 15.3 12.5 12.4 13.4 14.1 14.6 15.9 23.7 31.3 31.5 4.2 20.2 4.6 28.7 19.4 24.7 25.8 24.2 19.0 17.1 13.6 10.7
11.6 12.2 12.5 13.0 12.5 14.1 14.9 14.5 15.2 11.5 15.4 16.9 15.4 15.5 12.6 12.5 12.5 16.0 14.4 14.4 11.0 11.8 12.8 14.5 14.4 12.3 11.5 13.4 14.4 6.5 3.9 3.4 23.5 3.9 22.7 18.5 22.8 21.8 21.5 21.5 19.5 17.1 12.9
Water_Equivalent
0.00 0.00 0.00 0.00 0.00 0.00 0.00 0.00 0.00 0.00 0.00 0.00 0.00 0.00 0.00 0.00 0.00 0.00 0.00 0.00 0.05 0.05 0.00 0.00 0.00 0.00 0.00 0.00 0.01 0.01 0.02 0.02 0.20 0.01 0.00 0.00 0.00 0.00 0.00 0.00 0.00 0.00 0.00
0.00 0.00 0.00 0.00 0.00 0.00 0.00 0.00 0.00 0.00 0.00 0.00 0.00 0.00 0.00 0.00 0.00 0.00 0.00 0.07 0.08 0.00 0.00 0.00 0.00 0.04 0.09 0.01 0.01 0.01 0.01 0.01 0.06 0.09 0.00 0.00 0.00 0.00 0.00 0.00 0.00 0.00 0.00
0.00 0.00 0.00 0.00 0.00 0.00 0.00 0.00 0.00 0.00 0.00 0.00 0.00 0.00 0.00 0.00 0.00 0.00 0.00 0.00 0.00 0.00 0.00 0.00 0.00 0.06 0.09 0.10 0.01 0.01 0.04 0.01 0.03 0.08 0.05 0.00 0.00 0.00 0.00 0.00 0.00 0.00 0.00
0.00 0.00 0.00 0.00 0.00 0.00 0.00 0.00 0.00 0.00 0.00 0.00 0.00 0.00 0.00 0.00 0.00 0.00 0.00 0.00 0.00 0.00 0.00 0.00 0.00 0.00 0.08 0.09 0.09 0.10 0.10 0.16 0.11 0.06 0.05 0.01 0.00 0.00 0.00 0.01 0.02 0.00 0.00
0.00 0.00 0.00 0.00 0.00 0.02 0.07 0.09 0.08 0.07 0.00 0.00 0.00 0.03 0.00 0.00 0.00 0.00 0.00 0.10 0.07 0.00 0.00 0.00 0.00 0.01 nan nan 0.17 0.16 0.14 0.24 0.31 0.33 0.06 0.03 0.01 0.01 0.01 0.01 0.05 0.04 0.04
0.00 0.00 0.00 0.14 0.17 0.18 0.17 0.13 0.09 0.08 0.08 0.08 0.08 0.08 0.08 0.00 nan nan 0.01 0.09 0.10 0.00 0.01 0.00 0.00 0.00 0.00 nan nan nan nan 0.41 1.00 0.93 0.09 0.05 0.01 0.01 0.01 0.02 0.05 0.08 0.17
0.20 0.29 0.26 0.22 0.20 0.16 0.13 0.12 0.09 0.09 0.10 0.08 0.08 0.08 0.08 0.07 nan nan nan 0.11 0.11 0.01 0.00 0.00 0.00 0.00 0.01 0.01 nan nan nan nan nan 0.07 0.19 0.05 0.02 0.01 0.01 0.04 0.06 0.15 0.15
0.24 0.33 0.24 0.16 0.28 0.16 0.13 0.14 0.10 0.09 0.11 0.09 0.11 0.10 0.08 0.07 nan nan nan 0.09 0.09 0.00 0.00 0.00 0.01 0.01 0.01 0.01 0.04 0.20 0.13 0.12 0.06 0.03 0.04 0.04 0.02 0.01 0.03 0.08 0.19 0.31 0.25
0.10 0.15 0.15 0.22 0.31 0.17 0.37 0.17 0.13 0.23 0.17 0.28 0.29 0.43 0.35 0.34 nan nan 0.20 0.30 0.21 0.16 0.01 0.01 0.01 0.02 nan nan 0.22 0.41 0.26 0.14 nan nan nan nan nan nan nan 0.78 1.92 2.11 1.15
0.09 0.09 0.11 0.21 0.45 0.35 0.21 0.31 0.36 0.35 0.32 0.41 0.37 0.34 0.11 0.48 nan nan nan 0.79 0.72 0.46 0.26 0.01 0.01 0.00 nan nan 0.25 0.37 0.51 0.19 0.13 0.38 0.12 0.09 nan nan nan 0.08 0.75 1.92 1.10
0.16 0.16 0.19 0.21 0.47 0.30 0.35 0.30 0.42 0.46 0.26 0.43 0.40 0.32 0.36 0.21 0.24 nan nan 0.47 0.68 0.83 0.70 0.44 0.22 nan nan nan nan 0.34 0.37 0.28 0.62 0.48 0.37 0.37 0.21 0.14 0.23 0.18 0.10 0.41 0.87
0.23 0.25 0.31 0.51 0.48 0.49 0.86 0.53 0.72 0.63 0.62 0.54 0.57 0.46 0.41 0.18 nan nan nan nan nan 1.24 0.63 0.28 0.26 nan nan nan 0.23 nan nan 0.20 1.02 1.12 0.96 0.71 0.43 0.38 0.22 0.19 0.06 0.12 0.15
0.53 0.74 0.74 0.66 0.66 0.66 0.96 0.61 0.86 0.73 0.86 0.49 0.65 0.60 0.40 0.36 0.38 nan nan nan nan 0.66 0.49 0.30 nan nan nan nan nan nan 0.08 0.66 0.90 1.05 0.71 0.39 0.22 0.18 0.10 0.20 0.06 0.13 0.08
1.03 0.54 0.44 0.56 0.45 0.56 0.77 0.89 1.28 0.97 0.76 0.81 0.94 0.88 0.54 0.51 0.40 0.45 0.86 0.63 0.25 0.65 nan 0.48 nan 0.25 nan nan 0.20 0.24 0.39 0.43 0.47 0.60 0.51 0.23 0.23 0.30 0.38 0.32 0.54 0.49 0.94
0.70 0.38 0.54 0.78 0.88 0.53 0.49 0.81 0.69 0.46 0.97 1.49 1.79 1.21 1.20 1.21 0.96 0.54 1.16 1.32 1.26 1.11 0.92 1.34 1.01 0.47 0.39 0.34 0.49 0.37 0.35 0.42 0.46 0.57 0.59 0.55 0.52 0.50 0.51 0.40 0.50 0.72 0.91
0.38 0.58 0.57 0.58 0.50 0.45 0.46 0.44 nan nan nan nan nan 1.20 1.54 nan nan nan nan nan nan nan 1.98 2.12 0.92 0.73 0.48 0.51 0.61 0.51 0.45 0.39 0.40 0.52 0.62 0.64 0.65 0.63 0.68 0.70 0.69 0.85 0.89
0.71 0.46 0.61 0.51 0.49 0.55 0.57 0.67 0.77 0.48 nan nan nan nan nan nan nan nan nan nan nan nan 3.22 1.65 1.29 0.81 0.74 0.47 0.60 0.50 0.49 0.44 0.22 0.47 0.49 0.60 0.78 0.88 0.88 0.83 0.77 0.67 1.01
0.66 0.61 0.72 0.68 0.65 0.68 0.75 0.78 0.81 0.95 1.10 0.92 nan nan nan nan nan nan nan nan 2.48 nan 2.58 2.55 2.06 1.59 1.03 0.82 0.59 0.53 0.53 0.52 0.47 0.60 0.66 1.16 1.38 1.50 1.36 1.40 1.03 1.31 1.25
0.70 0.59 0.66 0.66 0.64 0.68 0.76 0.65 0.74 0.73 0.78 1.04 1.00 1.04 0.86 nan nan nan nan 1.51 2.42 2.27 2.30 2.41 1.87 1.52 1.10 1.25 1.17 1.40 1.15 1.23 1.17 1.62 1.65 1.89 1.75 1.83 1.82 1.31 0.98 0.74 0.77
0.74 0.76 0.74 0.98 0.80 0.71 0.52 0.68 0.61 0.65 0.74 0.93 0.99 0.88 1.58 1.68 2.34 2.47 2.00 2.81 2.64 2.37 2.06 2.31 2.22 2.34 2.37 2.17 2.17 2.00 1.96 2.07 1.83 1.97 1.96 1.93 1.83 2.00 1.16 1.82 1.55 1.17 1.47
1.25 1.04 0.78 0.88 1.15 1.19 1.19 0.89 0.68 1.00 0.90 1.15 0.88 0.87 nan 1.40 1.65 1.91 2.27 1.94 2.39 2.66 2.13 2.39 2.37 3.17 3.28 3.70 2.97 2.82 2.59 1.43 1.98 2.24 2.41 2.43 2.32 2.92 1.69 0.94 1.62 1.78 1.66
1.37 1.45 1.45 1.53 0.98 1.01 1.23 0.76 0.87 0.90 0.86 0.72 0.56 0.66 nan 0.79 1.07 1.16 1.32 1.91 2.52 2.44 2.82 3.42 3.31 3.69 3.19 2.92 2.56 2.37 1.90 2.44 2.74 2.50 1.87 2.01 2.46 2.10 2.13 1.34 1.42 1.17 1.75
1.08 0.90 0.99 0.98 0.94 1.32 1.10 1.36 1.12 1.07 0.95 1.12 0.96 0.95 1.07 1.59 1.33 1.25 2.12 2.39 1.75 1.56 1.85 2.01 1.87 1.85 1.69 2.08 1.78 1.74 1.92 2.30 2.42 3.41 2.07 2.24 2.16 2.62 2.34 2.01 1.75 1.92 1.85
0.94 0.97 0.95 1.40 1.17 0.89 1.15 1.26 1.03 1.39 1.10 1.24 2.26 1.74 0.87 1.25 2.01 1.30 1.43 1.80 1.40 2.84 1.84 2.01 1.52 1.49 1.79 3.04 4.05 3.96 4.33 4.56 4.26 3.83 3.36 2.06 2.06 1.83 1.74 2.14 1.64 1.55 1.23
1.26 1.01 1.05 0.95 1.69 1.25 1.14 1.47 0.93 1.44 1.78 1.31 1.75 1.14 1.17 1.04 1.23 2.04 1.85 1.42 1.67 1.54 1.27 1.26 1.35 1.43 1.47 1.60 2.42 3.25 3.47 1.37 2.45 1.51 2.87 1.82 2.30 2.38 2.24 1.88 1.75 1.40 1.19
0.99 1.05 1.09 1.14 1.10 1.28 1.38 1.34 1.42 1.05 1.46 1.60 1.44 1.46 1.19 1.19 1.22 1.60 1.45 1.45 1.11 1.19 1.29 1.46 1.46 1.25 1.16 1.35 1.45 1.59 1.28 1.11 2.52 1.28 2.24 1.73 2.08 1.88 1.84 1.87 1.71 1.62 1.27
SL_Ratio
nan nan nan nan nan nan nan nan nan nan nan nan nan nan nan nan nan nan nan nan 10.0 10.0 5.0 8.8 5.0 nan 8.1 7.7 7.6 7.4 8.0 8.0 9.0 7.8 nan nan nan nan 5.0 nan nan nan nan
nan nan nan nan nan nan nan nan nan nan nan nan nan nan nan nan nan nan 10.0 10.0 10.0 10.0 nan 15.0 9.0 9.9 10.0 8.2 8.4 8.6 8.6 8.3 8.8 9.8 8.3 7.5 nan nan 7.5 10.0 nan nan nan
nan nan nan nan nan nan nan nan nan nan nan nan nan nan nan nan nan nan nan nan nan nan nan 12.5 11.3 10.0 10.1 10.0 9.4 10.0 9.7 9.4 8.4 9.0 8.6 9.2 nan nan 5.0 nan nan nan nan
nan nan nan nan nan nan nan nan nan nan nan nan nan nan nan nan nan nan nan nan 5.0 nan nan 10.0 15.0 12.0 10.1 10.1 10.1 10.1 10.1 10.0 9.7 8.2 8.6 7.7 6.7 nan 10.0 5.5 5.0 nan 6.7
nan nan nan nan nan 9.3 10.0 10.0 10.0 10.0 nan nan nan 9.9 nan nan nan nan 15.0 10.0 10.1 11.5 10.6 11.3 10.0 4.2 nan nan 10.0 10.3 10.4 10.5 10.3 10.0 10.7 10.1 9.6 9.2 8.3 7.5 7.2 6.1 5.5
8.8 9.5 9.5 10.0 10.0 9.9 10.0 10.0 10.0 10.0 10.0 10.0 10.0 10.0 10.0 nan nan nan 11.8 10.4 10.1 11.7 11.5 11.3 12.5 6.0 8.9 nan nan nan nan 10.1 10.1 10.0 10.4 10.6 9.0 9.0 8.3 5.9 4.7 5.0 6.4
9.6 9.2 9.6 10.0 10.0 10.0 10.0 10.0 10.0 10.0 10.0 10.0 10.0 10.0 10.0 10.0 nan nan nan 10.1 10.1 11.2 10.8 10.9 10.0 8.0 3.7 9.1 nan nan nan nan nan 9.0 10.3 10.0 9.6 9.0 6.4 5.5 4.9 3.9 4.4
9.6 9.8 9.9 10.0 9.9 10.0 10.0 10.0 10.2 10.2 10.3 10.3 10.1 10.1 10.1 10.0 nan nan nan 10.2 10.2 10.6 10.6 10.0 9.7 9.8 9.1 9.2 9.6 10.0 9.9 9.8 9.3 9.3 9.2 9.4 9.4 8.8 7.6 7.9 7.4 6.4 6.4
10.0 10.0 10.0 10.0 10.0 10.2 10.2 10.6 10.8 10.3 10.4 10.1 10.0 9.9 9.9 9.9 nan nan 10.0 10.0 10.0 10.0 9.5 9.2 9.5 10.0 nan nan 9.9 10.1 10.0 9.9 nan nan nan nan nan nan nan 7.9 7.8 7.8 7.7
10.0 10.2 10.2 10.2 10.1 10.3 10.5 10.4 10.1 10.0 10.0 10.0 10.0 10.0 8.1 9.9 nan nan nan 9.9 9.9 9.9 9.9 9.1 3.4 9.3 nan nan 9.7 10.1 10.2 10.0 9.7 9.6 9.2 8.9 nan nan nan 7.5 7.4 8.3 7.3
10.0 10.3 10.3 10.5 10.2 10.3 10.2 10.1 10.1 10.2 10.3 10.1 10.1 10.1 10.0 9.4 9.9 nan nan 9.9 10.0 10.0 10.0 9.9 9.9 nan nan nan nan 9.9 10.0 9.8 9.9 9.8 9.1 8.6 8.4 8.2 8.0 7.9 7.6 7.0 7.0
10.2 10.4 10.5 10.3 10.3 10.3 10.1 10.3 10.1 10.1 10.1 10.1 10.0 10.0 9.9 10.0 nan nan nan nan nan 9.9 10.1 10.0 10.1 nan nan nan 8.7 nan nan 8.2 9.6 9.4 9.0 8.9 8.4 8.3 8.1 8.0 7.9 7.6 7.4
10.2 10.1 10.1 10.2 10.2 10.2 10.0 10.2 10.1 10.1 9.9 10.0 9.9 9.9 9.9 9.9 9.9 nan nan nan nan 9.9 9.9 10.1 nan nan nan nan nan nan 3.0 9.3 9.4 9.6 9.8 8.8 8.5 8.2 8.0 7.7 7.8 7.8 7.7
10.0 10.3 10.6 10.5 9.7 10.6 10.2 10.0 9.9 10.0 10.1 9.9 9.9 9.9 10.0 10.0 10.0 9.9 9.8 9.7 7.7 10.0 nan 10.0 nan 10.0 nan nan 9.2 10.1 10.0 9.5 9.6 9.9 8.8 8.3 8.1 8.1 8.1 7.9 8.0 7.9 7.8
10.5 10.9 10.7 10.4 10.2 10.6 10.5 10.3 10.2 10.2 10.1 10.0 9.9 10.1 10.2 10.2 10.0 9.9 9.7 9.7 9.9 10.1 8.5 10.0 10.0 10.3 10.3 10.2 10.1 10.2 10.2 9.6 9.6 9.1 9.0 8.6 8.2 8.1 7.9 7.9 7.9 7.9 8.1
11.1 10.6 10.4 10.3 10.2 10.2 10.4 10.7 nan nan nan nan nan 10.1 9.8 nan nan nan nan nan nan nan 9.4 10.1 10.5 10.6 10.9 10.7 10.4 10.4 10.2 9.5 9.7 9.4 9.0 8.6 8.7 8.5 8.3 8.0 7.8 7.9 8.3
10.2 10.4 10.4 9.8 10.7 10.5 10.5 10.4 10.4 10.3 nan nan nan nan nan nan nan nan nan nan nan nan 9.7 10.2 10.5 10.9 11.2 11.6 11.0 11.2 11.2 10.8 11.2 10.2 9.8 9.3 9.0 8.6 8.1 8.0 7.9 7.9 8.0
10.4 3.0 10.5 10.6 10.7 10.5 10.5 10.4 10.3 10.2 10.2 10.2 nan nan nan nan nan nan nan nan 9.8 nan 9.9 10.1 10.3 10.5 10.9 11.1 11.3 11.7 11.5 11.3 11.2 10.6 10.5 9.9 9.4 9.0 8.6 8.4 8.1 7.9 7.9
10.4 10.5 10.4 10.3 10.3 10.2 10.2 10.4 10.4 10.5 10.5 10.3 10.3 10.1 6.3 nan nan nan nan 9.8 9.9 10.0 10.1 10.1 10.3 10.5 10.7 10.5 10.6 10.4 10.8 10.8 10.8 10.4 10.2 9.9 9.5 9.3 8.9 8.5 8.5 6.8 7.2
10.5 4.2 8.1 10.3 10.6 10.7 10.9 10.7 10.9 10.8 10.9 10.5 10.4 10.3 10.1 8.9 9.9 9.8 9.9 9.7 9.9 9.9 10.1 10.1 10.1 10.0 9.9 10.0 10.0 10.1 10.2 10.2 10.3 10.4 10.5 10.2 9.7 9.2 9.3 8.6 8.4 8.5 8.0
10.9 11.2 3.0 11.3 10.9 10.7 10.6 11.0 11.3 10.7 10.7 10.5 10.5 10.4 nan 10.0 10.0 9.9 9.9 10.0 9.9 9.8 10.0 10.0 9.9 9.7 9.6 9.6 9.7 9.8 9.9 10.3 10.2 10.2 10.2 10.2 9.9 9.3 9.0 9.2 8.4 8.1 8.0
11.3 11.1 11.1 11.0 11.8 11.7 11.2 11.7 11.4 11.3 11.4 11.4 11.7 10.8 nan 10.9 10.6 10.3 10.2 10.0 9.9 9.9 9.8 9.7 9.7 9.6 9.7 9.8 9.9 9.9 10.1 9.9 9.9 10.0 10.4 10.4 10.1 9.8 9.1 8.9 8.5 8.3 7.9
11.9 12.5 12.2 12.2 12.1 4.5 11.7 11.1 11.2 11.1 11.3 10.8 10.7 11.2 11.2 10.2 10.3 10.4 10.1 10.0 10.2 10.1 9.9 9.9 9.9 9.9 9.9 9.9 10.0 10.1 10.2 10.2 10.3 9.9 10.6 10.5 10.6 10.1 9.5 9.2 8.8 8.4 8.1
12.2 11.9 11.8 11.0 11.3 11.8 11.2 11.1 11.6 4.1 11.0 10.8 10.6 10.2 10.4 10.3 10.2 10.5 10.4 10.2 10.1 9.8 9.9 9.8 9.9 9.9 9.9 9.7 9.5 9.5 9.5 9.4 9.6 9.8 10.0 10.7 10.9 9.8 10.4 9.3 9.0 8.0 8.6
11.5 11.8 11.6 11.7 10.8 11.2 11.3 10.9 11.4 10.8 10.7 10.7 10.2 10.8 10.9 11.0 10.6 10.1 10.1 10.0 9.9 9.9 9.9 9.9 9.9 9.9 9.9 9.9 9.8 9.7 9.1 3.0 8.2 3.0 10.0 10.7 10.7 10.9 10.8 10.1 9.8 9.7 9.0
11.8 11.6 11.5 11.3 11.3 11.1 10.8 10.8 10.7 11.0 10.6 10.6 10.6 10.6 10.6 10.5 10.3 10.0 9.9 9.9 9.9 9.9 9.9 9.9 9.9 9.9 9.9 9.9 9.9 4.1 3.0 3.0 9.3 3.0 10.1 10.7 10.9 11.6 11.7 11.5 11.4 10.6 10.2